This is the latest recevied weather packets stored in our database for station/object K9YK-13. If no packets are shown the sender has not sent any weather packets the latest 10 day(s).
| Time | Temp. | Humidity | Pressure | Rain* | Wind** | Luminosity | Snow |
|---|---|---|---|---|---|---|---|
| 1778106669 | 15° C | 52% | 0 hPa | 0 mm | - | - | - |
| 1778106369 | 15° C | 52% | 0 hPa | 0 mm | - | - | - |
| 1778106069 | 15° C | 49% | 0 hPa | 0 mm | - | - | - |
| 1778105769 | 15° C | 49% | 0 hPa | 0 mm | - | - | - |
| 1778105469 | 15.56° C | 50% | 0 hPa | 0 mm | - | - | - |
| 1778105169 | 15° C | 48% | 0 hPa | 0 mm | - | - | - |
| 1778104869 | 16.11° C | 48% | 0 hPa | 0 mm | - | - | - |
| 1778104569 | 16.11° C | 48% | 0 hPa | 0 mm | - | - | - |
| 1778104269 | 16.11° C | 47% | 0 hPa | 0 mm | - | - | - |
| 1778103969 | 15° C | 49% | 0 hPa | 0 mm | - | - | - |
| 1778103669 | 15.56° C | 48% | 0 hPa | 0 mm | - | - | - |
| 1778103369 | 16.11° C | 52% | 0 hPa | 0 mm | - | - | - |
| 1778103069 | 15° C | 48% | 0 hPa | 0 mm | - | - | - |
| 1778102769 | 15.56° C | 51% | 0 hPa | 0 mm | - | - | - |
| 1778102469 | 15.56° C | 50% | 0 hPa | 0 mm | - | - | - |
| 1778102169 | 15° C | 51% | 0 hPa | 0 mm | - | - | - |
| 1778101869 | 16.11° C | 51% | 0 hPa | 0 mm | - | - | - |
| 1778101569 | 15.56° C | 48% | 0 hPa | 0 mm | - | - | - |
| 1778101269 | 15.56° C | 52% | 0 hPa | 0 mm | - | - | - |
| 1778100969 | 15.56° C | 47% | 0 hPa | 0 mm | - | - | - |
| 1778100669 | 15° C | 49% | 0 hPa | 0 mm | - | - | - |
| 1778100369 | 16.11° C | 47% | 0 hPa | 0 mm | - | - | - |
| 1778100069 | 16.67° C | 47% | 0 hPa | 0 mm | - | - | - |
| 1778099769 | 16.67° C | 47% | 0 hPa | 0 mm | - | - | - |
| 1778099469 | 15.56° C | 49% | 0 hPa | 0 mm | - | - | - |
* Rain latest hour (hover to see other rain measurements)
** Current wind speed in m/s (hover to see current wind gust speed)